Home   Weather   Mali i Perqarkës   Past weeks
Flag for Albania

Past Weather in Mali i Perqarkës, Albania — Yesterday and Last 2 Weeks

Now
39 °F

Clear.


Feels Like: 39 °F
Forecast: 72 / 40 °F
Wind: 2 mph from North

Location: Tirana Airport

Current Time: Apr 8, 2020 at 5:42:47 am

Latest Report: Apr 8, 2020 at 4:50 am


Visibility: 10 mi

Pressure: 30.27 "Hg

Humidity: 75%

Dew Point: 32 °F

Location of Mali i PerqarkësLocation

Past Weather in Mali i Perqarkës — Graph

°F

Mali i Perqarkës Temperature Yesterday

Maximum temperature yesterday: 73 °F (at 2:20 pm)
Minimum temperature yesterday: 46 °F (at 11:50 pm)
Average temperature yesterday: 60 °F

High & Low Weather Summary for the Past Weeks

 TemperatureHumidityPressure
High73 °F (Apr 7, 2:20 pm)100% (Mar 28, 4:50 am)30.30 "Hg (Mar 28, 4:50 am)
Low28 °F (Apr 2, 6:20 am)11% (Apr 7, 2:50 pm)29.71 "Hg (Mar 26, 1:20 pm)
Average53 °F64%29.95 "Hg
* Reported Mar 24 3:20 am — Apr 8 4:20 am, Mali i Perqarkës. Weather by CustomWeather, © 2020

Note: Actual official high and low records may vary slightly from our data, if they occured in-between our weather recording intervals... More about our weather records

Mali i Perqarkës Weather History for the Previous 24 Hours

Scroll right to see more
 ConditionsComfort  
Time TempWeatherWind HumidityBarometerVisibility
4:20 am
Wed, Apr 8
39 °FClear.No wind75%30.27 "Hg10 mi
3:50 am41 °FClear.1 mph76%30.27 "Hg10 mi
3:20 am39 °FClear.2 mph81%30.27 "Hg10 mi
2:20 am43 °FClear.3 mph66%30.27 "Hg10 mi
1:50 am43 °FClear.No wind66%30.27 "Hg10 mi
1:20 am43 °FClear.2 mph66%30.27 "Hg10 mi
12:50 am45 °FClear.2 mph61%30.30 "Hg10 mi
12:20 am43 °FClear.6 mph66%30.27 "Hg10 mi
11:50 pm
Tue, Apr 7
46 °FClear.3 mph62%30.30 "Hg10 mi
11:20 pm48 °FClear.5 mph58%30.30 "Hg10 mi
10:50 pm48 °FClear.3 mph62%30.30 "Hg10 mi
10:20 pm48 °FClear.2 mph58%30.30 "Hg10 mi
9:50 pm52 °FClear.1 mph41%30.27 "Hg10 mi
8:50 pm57 °FClear.1 mph31%30.27 "Hg10 mi
8:20 pm57 °FClear.3 mph36%30.27 "Hg10 mi
7:50 pm64 °FClear.2 mph21%30.24 "Hg10 mi
7:20 pm64 °FClear.2 mph22%30.24 "Hg10 mi
6:50 pm68 °FSunny.No wind18%30.24 "Hg10 mi
6:20 pm70 °FSunny.6 mph20%30.24 "Hg10 mi
5:50 pm72 °FSunny.8 mph20%30.21 "Hg10 mi
5:20 pm72 °FSunny.10 mph16%30.21 "Hg10 mi
4:50 pm73 °FSunny.10 mph12%30.21 "Hg10 mi
4:20 pm73 °FPassing clouds.7 mph13%30.21 "HgN/A
3:50 pm72 °FPassing clouds.6 mph11%30.21 "HgN/A
3:20 pm73 °FPassing clouds.7 mph13%30.21 "HgN/A
2:50 pm73 °FSunny.2 mph11%30.21 "Hg10 mi
2:20 pm73 °FSunny.3 mph13%30.24 "Hg10 mi
1:50 pm72 °FPassing clouds.6 mph14%30.24 "HgN/A
1:20 pm72 °FSunny.3 mph14%30.24 "Hg10 mi
12:50 pm72 °FPassing clouds.7 mph17%30.24 "HgN/A
12:20 pm72 °FSunny.5 mph12%30.24 "Hg10 mi
11:50 am70 °FPassing clouds.7 mph15%30.27 "HgN/A
11:20 am70 °FPassing clouds.12 mph13%30.27 "HgN/A
10:50 am68 °FPassing clouds.12 mph14%30.27 "HgN/A
10:20 am66 °FPassing clouds.10 mph22%30.27 "HgN/A
9:20 am63 °FSunny.13 mph27%30.27 "Hg10 mi
8:20 am57 °FPassing clouds.8 mph36%30.27 "HgN/A
7:50 am55 °FSunny.9 mph36%30.27 "Hg10 mi
7:20 am54 °FPassing clouds.9 mph38%30.27 "HgN/A
6:50 am52 °FScattered clouds.9 mph41%30.27 "HgN/A
6:20 am50 °FPartly sunny.8 mph43%30.27 "HgN/A
5:50 am50 °FPassing clouds.3 mph43%30.27 "HgN/A
5:20 am50 °FPassing clouds.2 mph47%30.27 "HgN/A
Weather by CustomWeather, © 2020

See weather overview

Advertising